Вернуться в каталог

GLOBALSTAR M002

АктивенСвязьLEO
NORAD 25164·PAYLOAD·🇺🇸 United States

Запущен Feb 14, 1998 с Cape Canaveral Space Force Station

Loading…

Ближайшие Пролёты (ближайшие 24 часа)

TLE

СвежийSource: Space-Track

Эпоха: Sep 14, 2026, 04:51 UTC

1 25164U 98008C   26257.20224740 -.00000057  00000-0  37727-3 0  9998
2 25164  52.0002 181.8250 0000915 278.6437  81.4279 11.61517752236824

Отслеживайте GLOBALSTAR M002 в реальном времени с AllMySat

Download on the App Store